TimeCDT,TemperatureF,Dew PointF,Humidity,Sea Level PressureIn,VisibilityMPH,Wind Direction,Wind SpeedMPH,Gust SpeedMPH,PrecipitationIn,Events,Conditions,WindDirDegrees,DateUTC
12:52 AM,12.0,9.0,88,30.35,10.0,Calm,Calm,-,N/A,,Clear,0,2013-03-13 05:52:00
1:52 AM,12.9,9.0,84,30.35,10.0,SE,5.8,-,N/A,,Clear,130,2013-03-13 06:52:00
2:52 AM,12.9,8.1,81,30.34,10.0,ESE,6.9,-,N/A,,Clear,120,2013-03-13 07:52:00
3:52 AM,14.0,9.0,80,30.35,10.0,SSE,5.8,-,N/A,,Clear,150,2013-03-13 08:52:00
4:52 AM,15.1,10.0,80,30.34,10.0,SSE,8.1,-,N/A,,Scattered Clouds,160,2013-03-13 09:52:00
5:52 AM,14.0,9.0,80,30.32,10.0,SSE,9.2,-,N/A,,Scattered Clouds,160,2013-03-13 10:52:00
6:52 AM,14.0,9.0,80,30.32,10.0,SSE,6.9,-,N/A,,Partly Cloudy,160,2013-03-13 11:52:00
7:52 AM,14.0,9.0,80,30.29,10.0,SE,11.5,-,N/A,,Overcast,140,2013-03-13 12:52:00
8:52 AM,17.1,10.9,77,30.29,10.0,SSE,10.4,-,N/A,,Overcast,150,2013-03-13 13:52:00
9:52 AM,19.0,12.9,77,30.30,10.0,SSE,11.5,-,N/A,,Overcast,150,2013-03-13 14:52:00
10:52 AM,25.0,16.0,69,30.28,10.0,SSE,15.0,-,N/A,,Mostly Cloudy,150,2013-03-13 15:52:00
11:52 AM,30.0,15.1,54,30.25,10.0,SSE,15.0,-,N/A,,Overcast,150,2013-03-13 16:52:00
12:52 PM,36.0,15.1,43,30.21,10.0,SSE,16.1,-,N/A,,Mostly Cloudy,160,2013-03-13 17:52:00
1:52 PM,41.0,15.1,35,30.18,10.0,SSE,16.1,-,N/A,,Clear,160,2013-03-13 18:52:00
2:52 PM,43.0,19.0,38,30.14,10.0,SSE,19.6,-,N/A,,Clear,150,2013-03-13 19:52:00
3:52 PM,46.0,19.9,35,30.10,10.0,SSE,19.6,-,N/A,,Clear,150,2013-03-13 20:52:00
4:52 PM,46.0,21.0,37,30.08,10.0,SSE,19.6,-,N/A,,Clear,160,2013-03-13 21:52:00
5:52 PM,46.9,24.1,41,30.07,10.0,SSE,13.8,-,N/A,,Clear,150,2013-03-13 22:52:00
6:52 PM,44.1,25.0,47,30.06,10.0,SSE,17.3,-,N/A,,Clear,150,2013-03-13 23:52:00
7:52 PM,39.0,26.1,60,30.05,10.0,SSE,13.8,-,N/A,,Clear,150,2013-03-14 00:52:00
8:52 PM,36.0,27.0,70,30.03,10.0,SSE,12.7,-,N/A,,Partly Cloudy,150,2013-03-14 01:52:00
9:52 PM,36.0,27.0,70,30.01,10.0,SSE,11.5,-,N/A,,Clear,150,2013-03-14 02:52:00
10:52 PM,35.1,28.0,76,30.01,10.0,Variable,3.5,-,N/A,,Clear,0,2013-03-14 03:52:00
11:52 PM,34.0,28.0,79,30.01,10.0,SSE,8.1,-,N/A,,Clear,150,2013-03-14 04:52:00